Location: Central Falls
(41.8900°N, 71.3929°W)
Time: 02:28:13
(UTC+00:00)

Vanguard 2 Rocket - Pass Details

Date: 03 December 2023
Orbit: 555 x 3309 km, 32.9° (Epoch: 01 March)

Event Time Altitude Azimuth Distance (km) Brightness Sun altitude
Rises 17:13:22 0° 200° (SSW) 5,857 12.3 25.4°
Reaches altitude 10° 17:17:41 10° 189° (S) 5,226 12.7 25.2°
Maximum altitude 17:30:37 29° 138° (SE) 4,622 11.2 24.7°
Drops below altitude 10° 17:45:53 10° 89° (E) 6,252 11.0 23.9°
Sets 17:51:38 0° 80° (E) 7,166 11.2 23.6°
